| time (UTC) | temp F | wind direction | speed knots | gust knots | rain 1hr in | rain 24hr in | rain mn in | humidity % | barometer mb |
| 20260510044915 | 58 | 276 | 2.6 | 5.2 | 0.00 | 0.00 | 0.00 | 67 | 1013.8 |
| 20260510044412 | 58 | 299 | 2.6 | 3.5 | 0.00 | 0.00 | 0.00 | 66 | 1013.7 |
| 20260510043909 | 58 | 270 | 1.7 | 3.5 | 0.00 | 0.00 | 0.00 | 67 | 1013.5 |
| 20260510043404 | 58 | 273 | 1.7 | 2.6 | 0.00 | 0.00 | 0.00 | 66 | 1013.4 |
| 20260510042903 | 58 | 316 | 1.7 | 2.6 | 0.00 | 0.00 | 0.00 | 66 | 1013.4 |
| 20260510042358 | 58 | 255 | 1.7 | 3.5 | 0.00 | 0.00 | 0.00 | 66 | 1013.5 |
| 20260510041854 | 59 | 274 | 1.7 | 3.5 | 0.00 | 0.00 | 0.00 | 65 | 1013.4 |
| 20260510041352 | 59 | 271 | 1.7 | 2.6 | 0.00 | 0.00 | 0.00 | 65 | 1013.5 |
| 20260510040849 | 59 | 294 | 2.6 | 3.5 | 0.00 | 0.00 | 0.00 | 65 | 1013.3 |
| 20260510040346 | 59 | 262 | 3.5 | 3.5 | 0.00 | 0.00 | 0.00 | 65 | 1013.5 |
| 20260510035841 | 59 | 293 | 2.6 | 3.5 | 0.00 | 0.00 | 0.00 | 65 | 1013.5 |
| 20260510035337 | 59 | 280 | 1.7 | 3.5 | 0.00 | 0.00 | 0.00 | 63 | 1013.5 |
| 20260510034833 | 60 | 258 | 1.7 | 3.5 | 0.00 | 0.00 | 0.00 | 63 | 1013.5 |
| 20260510034331 | 60 | 268 | 1.7 | 2.6 | 0.00 | 0.00 | 0.00 | 63 | 1013.7 |
| 20260510033827 | 59 | 267 | 2.6 | 3.5 | 0.00 | 0.00 | 0.00 | 63 | 1013.4 |
| 20260510033324 | 59 | 296 | 2.6 | 3.5 | 0.00 | 0.00 | 0.00 | 64 | 1013.4 |
| 20260510032821 | 60 | 307 | 1.7 | 6.1 | 0.00 | 0.00 | 0.00 | 63 | 1013.4 |
| 20260510032318 | 59 | 279 | 1.7 | 3.5 | 0.00 | 0.00 | 0.00 | 64 | 1013.5 |
| 20260510031813 | 59 | 287 | 1.7 | 6.1 | 0.00 | 0.00 | 0.00 | 63 | 1013.4 |
| 20260510031309 | 60 | 294 | 1.7 | 2.6 | 0.00 | 0.00 | 0.00 | 62 | 1013.3 |
| 20260510030809 | 60 | 286 | 2.6 | 2.6 | 0.00 | 0.00 | 0.00 | 63 | 1013.3 |
| 20260510030306 | 59 | 280 | 1.7 | 2.6 | 0.00 | 0.00 | 0.00 | 62 | 1013.3 |
| 20260510025803 | 59 | 276 | 1.7 | 3.5 | 0.00 | 0.00 | 0.00 | 65 | 1013.5 |
| 20260510025300 | 58 | 275 | 2.6 | 3.5 | 0.00 | 0.00 | 0.00 | 64 | 1013.2 |
| 20260510024757 | 58 | 275 | 2.6 | 3.5 | 0.00 | 0.00 | 0.00 | 65 | 1013.3 |
| 20260510024254 | 58 | 263 | 1.7 | 1.7 | 0.00 | 0.00 | 0.00 | 64 | 1013.3 |
| 20260510023750 | 58 | 285 | 1.7 | 3.5 | 0.00 | 0.00 | 0.00 | 66 | 1013.2 |
| 20260510023247 | 58 | 274 | 0.9 | 2.6 | 0.00 | 0.00 | 0.00 | 64 | 1013.1 |
| 20260510022744 | 58 | 281 | 1.7 | 2.6 | 0.00 | 0.00 | 0.00 | 64 | 1013.2 |
| 20260510022243 | 59 | 282 | 2.6 | 2.6 | 0.00 | 0.00 | 0.00 | 64 | 1013.1 |
| 20260510021742 | 59 | 279 | 1.7 | 2.6 | 0.00 | 0.00 | 0.00 | 64 | 1013.2 |
| 20260510021241 | 59 | 280 | 1.7 | 1.7 | 0.00 | 0.00 | 0.00 | 63 | 1013.2 |
| 20260510020737 | 59 | 273 | 1.7 | 2.6 | 0.00 | 0.00 | 0.00 | 64 | 1013.1 |
| 20260510020236 | 59 | 277 | 1.7 | 2.6 | 0.00 | 0.00 | 0.00 | 62 | 1013.0 |
| 20260510015733 | 59 | 275 | 1.7 | 3.5 | 0.00 | 0.00 | 0.00 | 62 | 1012.9 |
| 20260510015229 | 59 | 282 | 1.7 | 2.6 | 0.00 | 0.00 | 0.00 | 63 | 1012.6 |
| 20260510014724 | 59 | 287 | 2.6 | 2.6 | 0.00 | 0.00 | 0.00 | 63 | 1012.6 |
| 20260510014222 | 59 | 276 | 0.9 | 1.7 | 0.00 | 0.00 | 0.00 | 62 | 1012.5 |
| 20260510013717 | 59 | 281 | 1.7 | 2.6 | 0.00 | 0.00 | 0.00 | 62 | 1012.6 |
| 20260510013214 | 58 | 267 | 0.9 | 1.7 | 0.00 | 0.00 | 0.00 | 62 | 1012.5 |
| 20260510012713 | 59 | 264 | 1.7 | 1.7 | 0.00 | 0.00 | 0.00 | 63 | 1012.3 |
| 20260510012209 | 59 | 274 | 0.0 | 1.7 | 0.00 | 0.00 | 0.00 | 62 | 1012.1 |
| 20260510011704 | 59 | 280 | 1.7 | 1.7 | 0.00 | 0.00 | 0.00 | 63 | 1012.3 |
| 20260510011200 | 59 | 287 | 1.7 | 2.6 | 0.00 | 0.00 | 0.00 | 62 | 1012.1 |
| 20260510010656 | 59 | 276 | 0.9 | 2.6 | 0.00 | 0.00 | 0.00 | 61 | 1012.0 |
| 20260510010148 | 60 | 270 | 1.7 | 2.6 | 0.00 | 0.00 | 0.00 | 62 | 1011.9 |
| 20260510005644 | 61 | 268 | 0.0 | 0.9 | 0.00 | 0.00 | 0.00 | 59 | 1011.9 |
| 20260510005141 | 61 | 277 | 1.7 | 2.6 | 0.00 | 0.00 | 0.00 | 59 | 1011.6 |
| 20260510004639 | 61 | 280 | 1.7 | 2.6 | 0.00 | 0.00 | 0.00 | 60 | 1011.6 |
| 20260510004137 | 61 | 285 | 1.7 | 1.7 | 0.00 | 0.00 | 0.00 | 58 | 1011.7 |
| 20260510003634 | 62 | 278 | 0.9 | 1.7 | 0.00 | 0.00 | 0.00 | 57 | 1011.6 |
| 20260510003130 | 62 | 284 | 1.7 | 1.7 | 0.00 | 0.00 | 0.00 | 56 | 1011.4 |
| 20260510002629 | 62 | 244 | 0.9 | 1.7 | 0.00 | 0.00 | 0.00 | 55 | 1011.4 |
| 20260510002127 | 62 | 261 | 0.9 | 1.7 | 0.00 | 0.00 | 0.00 | 57 | 1011.3 |
| 20260510001623 | 63 | 232 | 0.9 | 0.9 | 0.00 | 0.00 | 0.00 | 55 | 1011.4 |
| 20260510001122 | 63 | 257 | 0.9 | 1.7 | 0.00 | 0.00 | 0.00 | 54 | 1011.2 |
| 20260510000622 | 62 | 266 | 3.5 | 5.2 | 0.00 | 0.00 | 0.00 | 54 | 1011.0 |
| 20260510000120 | 62 | 289 | 0.9 | 2.6 | 0.00 | 0.00 | 0.00 | 57 | 1011.0 |
| 20260509235616 | 63 | 268 | 0.9 | 0.9 | 0.00 | 0.00 | 0.00 | 58 | 1010.9 |
| 20260509235113 | 64 | 264 | 0.0 | 0.9 | 0.00 | 0.00 | 0.00 | 54 | 1010.8 |
| 20260509234609 | 65 | 264 | 0.9 | 1.7 | 0.00 | 0.00 | 0.00 | 53 | 1010.7 |
| 20260509234107 | 65 | 215 | 0.0 | 0.9 | 0.00 | 0.00 | 0.00 | 53 | 1011.0 |
| 20260509233604 | 66 | 233 | 2.6 | 2.6 | 0.00 | 0.00 | 0.00 | 50 | 1011.0 |
| 20260509233101 | 66 | 271 | 1.7 | 2.6 | 0.00 | 0.00 | 0.00 | 50 | 1011.0 |
| 20260509232557 | 66 | 233 | 1.7 | 3.5 | 0.00 | 0.00 | 0.00 | 49 | 1010.9 |
| 20260509232055 | 67 | 232 | 2.6 | 7.8 | 0.00 | 0.00 | 0.00 | 48 | 1011.0 |
| 20260509231551 | 67 | 241 | 0.9 | 2.6 | 0.00 | 0.00 | 0.00 | 48 | 1011.0 |
| 20260509231049 | 67 | 212 | 1.7 | 1.7 | 0.00 | 0.00 | 0.00 | 50 | 1011.0 |
| 20260509230545 | 67 | 253 | 0.0 | 1.7 | 0.00 | 0.00 | 0.00 | 48 | 1011.0 |
| 20260509230043 | 67 | 96 | 0.9 | 1.7 | 0.00 | 0.00 | 0.00 | 47 | 1011.1 |
| 20260509225538 | 68 | 300 | 1.7 | 2.6 | 0.00 | 0.00 | 0.00 | 47 | 1011.1 |
| 20260509225033 | 68 | 236 | 0.9 | 2.6 | 0.00 | 0.00 | 0.00 | 46 | 1011.0 |
| 20260509224529 | 69 | 234 | 1.7 | 3.5 | 0.00 | 0.00 | 0.00 | 45 | 1010.9 |
| 20260509224026 | 70 | 306 | 2.6 | 5.2 | 0.00 | 0.00 | 0.00 | 44 | 1011.1 |
| 20260509223523 | 70 | 217 | 3.5 | 6.1 | 0.00 | 0.00 | 0.00 | 43 | 1011.0 |
| 20260509223021 | 70 | 159 | 0.9 | 7.0 | 0.00 | 0.00 | 0.00 | 45 | 1011.1 |
| 20260509222517 | 70 | 217 | 4.3 | 7.8 | 0.00 | 0.00 | 0.00 | 43 | 1011.0 |
| 20260509222012 | 69 | 240 | 1.7 | 5.2 | 0.00 | 0.00 | 0.00 | 43 | 1011.1 |
| 20260509221509 | 70 | 259 | 3.5 | 9.6 | 0.00 | 0.00 | 0.00 | 43 | 1011.1 |
| 20260509221004 | 70 | 319 | 6.1 | 11.3 | 0.00 | 0.00 | 0.00 | 42 | 1011.2 |
| 20260509220501 | 71 | 254 | 4.3 | 9.6 | 0.00 | 0.00 | 0.00 | 42 | 1010.9 |
| 20260509215957 | 71 | 232 | 1.7 | 11.3 | 0.00 | 0.00 | 0.00 | 44 | 1011.0 |
| 20260509215452 | 69 | 305 | 4.3 | 7.0 | 0.00 | 0.00 | 0.00 | 43 | 1010.9 |
| 20260509214950 | 69 | 266 | 2.6 | 6.1 | 0.00 | 0.00 | 0.00 | 45 | 1011.0 |
| 20260509214447 | 69 | 284 | 1.7 | 3.5 | 0.00 | 0.00 | 0.00 | 46 | 1010.8 |
| 20260509213944 | 69 | 296 | 3.5 | 7.0 | 0.00 | 0.00 | 0.00 | 45 | 1010.9 |
| 20260509213440 | 69 | 233 | 1.7 | 2.6 | 0.00 | 0.00 | 0.00 | 45 | 1010.9 |
| 20260509212937 | 70 | 281 | 4.3 | 8.7 | 0.00 | 0.00 | 0.00 | 44 | 1010.8 |
| 20260509212435 | 69 | 345 | 1.7 | 3.5 | 0.00 | 0.00 | 0.00 | 45 | 1010.7 |
| 20260509211931 | 68 | 284 | 0.0 | 1.7 | 0.00 | 0.00 | 0.00 | 52 | 1010.9 |
| 20260509211426 | 68 | 137 | 2.6 | 3.5 | 0.00 | 0.00 | 0.00 | 52 | 1010.9 |
| 20260509210923 | 67 | 76 | 0.9 | 0.9 | 0.00 | 0.00 | 0.00 | 50 | 1010.6 |
| 20260509210420 | 68 | 57 | 0.0 | 1.7 | 0.00 | 0.00 | 0.00 | 53 | 1010.7 |
| 20260509205915 | 68 | 21 | 2.6 | 3.5 | 0.00 | 0.00 | 0.00 | 50 | 1010.6 |
| 20260509205415 | 68 | 153 | 0.9 | 1.7 | 0.00 | 0.00 | 0.00 | 49 | 1010.6 |
| 20260509204911 | 68 | 337 | 2.6 | 2.6 | 0.00 | 0.00 | 0.00 | 48 | 1010.6 |
| 20260509204408 | 67 | 247 | 0.0 | 1.7 | 0.00 | 0.00 | 0.00 | 52 | 1010.7 |
| 20260509203904 | 68 | 12 | 1.7 | 1.7 | 0.00 | 0.00 | 0.00 | 46 | 1010.6 |
| 20260509203401 | 67 | 0 | 0.0 | 0.9 | 0.00 | 0.00 | 0.00 | 51 | 1010.5 |
| 20260509202858 | 67 | 0 | 1.7 | 3.5 | 0.00 | 0.00 | 0.00 | 54 | 1010.7 |
| 20260509202354 | 67 | 30 | 3.5 | 5.2 | 0.00 | 0.00 | 0.00 | 53 | 1010.4 |
| 20260509201849 | 67 | 18 | 2.6 | 5.2 | 0.00 | 0.00 | 0.00 | 54 | 1010.3 |
| 20260509201345 | 67 | 359 | 1.7 | 2.6 | 0.00 | 0.00 | 0.00 | 53 | 1010.6 |
| 20260509200842 | 67 | 39 | 1.7 | 2.6 | 0.00 | 0.00 | 0.00 | 53 | 1010.5 |
| 20260509200336 | 66 | 332 | 0.9 | 1.7 | 0.00 | 0.00 | 0.00 | 52 | 1010.8 |
| 20260509195834 | 66 | 346 | 0.9 | 1.7 | 0.00 | 0.00 | 0.00 | 51 | 1010.9 |
| 20260509195333 | 67 | 326 | 0.9 | 2.6 | 0.00 | 0.00 | 0.00 | 50 | 1010.7 |
| 20260509194828 | 67 | 286 | 0.9 | 3.5 | 0.00 | 0.00 | 0.00 | 50 | 1010.7 |
| 20260509194324 | 67 | 325 | 1.7 | 2.6 | 0.00 | 0.00 | 0.00 | 49 | 1010.7 |
| 20260509193821 | 68 | 355 | 0.9 | 0.9 | 0.00 | 0.00 | 0.00 | 46 | 1010.7 |
| 20260509193320 | 68 | 50 | 0.0 | 0.9 | 0.00 | 0.00 | 0.00 | 49 | 1010.8 |
| 20260509192817 | 68 | 240 | 0.0 | 0.9 | 0.00 | 0.00 | 0.00 | 46 | 1010.7 |
| 20260509192313 | 69 | 244 | 0.9 | 1.7 | 0.00 | 0.00 | 0.00 | 45 | 1010.9 |
| 20260509191808 | 69 | 115 | 0.0 | 0.9 | 0.00 | 0.00 | 0.00 | 44 | 1010.7 |
| 20260509191304 | 68 | 146 | 0.0 | 0.0 | 0.00 | 0.00 | 0.00 | 45 | 1010.8 |
| 20260509190800 | 67 | 132 | 0.0 | 0.9 | 0.00 | 0.00 | 0.00 | 46 | 1010.7 |
| 20260509190258 | 67 | 140 | 1.7 | 3.5 | 0.00 | 0.00 | 0.00 | 48 | 1010.7 |
| 20260509185755 | 67 | 139 | 1.7 | 2.6 | 0.00 | 0.00 | 0.00 | 48 | 1010.7 |
| 20260509185251 | 67 | 82 | 0.9 | 1.7 | 0.00 | 0.00 | 0.00 | 47 | 1010.9 |
| 20260509184748 | 67 | 88 | 1.7 | 3.5 | 0.00 | 0.00 | 0.00 | 46 | 1010.8 |
| 20260509184246 | 69 | 88 | 6.1 | 7.0 | 0.00 | 0.00 | 0.00 | 45 | 1010.9 |
| 20260509183742 | 71 | 82 | 3.5 | 5.2 | 0.00 | 0.00 | 0.00 | 44 | 1010.8 |
| 20260509183237 | 70 | 82 | 1.7 | 1.7 | 0.00 | 0.00 | 0.00 | 45 | 1010.8 |
| 20260509182733 | 66 | 80 | 0.0 | 1.7 | 0.00 | 0.00 | 0.00 | 49 | 1011.1 |
| 20260509182231 | 65 | 42 | 0.9 | 3.5 | 0.00 | 0.00 | 0.00 | 51 | 1011.1 |
| 20260509181728 | 64 | 133 | 1.7 | 3.5 | 0.00 | 0.00 | 0.00 | 54 | 1011.1 |
| 20260509181225 | 64 | 93 | 0.9 | 5.2 | 0.00 | 0.00 | 0.00 | 52 | 1011.4 |
| 20260509180722 | 64 | 104 | 4.3 | 5.2 | 0.00 | 0.00 | 0.00 | 52 | 1011.3 |
| 20260509180219 | 63 | 109 | 0.0 | 1.7 | 0.00 | 0.00 | 0.00 | 55 | 1011.6 |
| 20260509175715 | 63 | 147 | 1.7 | 2.6 | 0.00 | 0.00 | 0.00 | 55 | 1011.8 |
| 20260509175212 | 62 | 173 | 1.7 | 2.6 | 0.00 | 0.00 | 0.00 | 55 | 1011.7 |
| 20260509174707 | 62 | 129 | 1.7 | 5.2 | 0.00 | 0.00 | 0.00 | 55 | 1011.8 |
| 20260509174202 | 62 | 154 | 2.6 | 3.5 | 0.00 | 0.00 | 0.00 | 54 | 1011.8 |
| 20260509173659 | 62 | 113 | 4.3 | 6.1 | 0.00 | 0.00 | 0.00 | 55 | 1011.8 |
| 20260509173155 | 63 | 90 | 4.3 | 5.2 | 0.00 | 0.00 | 0.00 | 53 | 1011.9 |
| 20260509172651 | 64 | 147 | 2.6 | 3.5 | 0.00 | 0.00 | 0.00 | 53 | 1011.9 |
| 20260509172147 | 64 | 21 | 0.9 | 5.2 | 0.00 | 0.00 | 0.00 | 50 | 1012.0 |
| 20260509171638 | 64 | 133 | 0.0 | 0.0 | 0.00 | 0.00 | 0.00 | 50 | 1012.1 |
| 20260509171135 | 63 | 157 | 1.7 | 1.7 | 0.00 | 0.00 | 0.00 | 54 | 1012.3 |
| 20260509170631 | 62 | 145 | 0.0 | 5.2 | 0.00 | 0.00 | 0.00 | 53 | 1012.1 |
| 20260509170127 | 62 | 103 | 0.9 | 2.6 | 0.00 | 0.00 | 0.00 | 54 | 1012.2 |
| 20260509165626 | 61 | 108 | 0.9 | 2.6 | 0.00 | 0.00 | 0.00 | 54 | 1012.6 |
| 20260509165122 | 62 | 137 | 1.7 | 2.6 | 0.00 | 0.00 | 0.00 | 53 | 1012.3 |
| 20260509164617 | 62 | 82 | 0.9 | 2.6 | 0.00 | 0.00 | 0.00 | 53 | 1012.5 |
| 20260509164114 | 61 | 130 | 0.0 | 0.9 | 0.00 | 0.00 | 0.00 | 55 | 1012.4 |
| 20260509163612 | 61 | 138 | 0.9 | 3.5 | 0.00 | 0.00 | 0.00 | 57 | 1012.4 |
| 20260509163107 | 61 | 132 | 0.9 | 1.7 | 0.00 | 0.00 | 0.00 | 55 | 1012.4 |
| 20260509162604 | 61 | 71 | 0.9 | 1.7 | 0.00 | 0.00 | 0.00 | 53 | 1012.5 |
| 20260509162059 | 61 | 40 | 1.7 | 2.6 | 0.00 | 0.00 | 0.00 | 55 | 1012.6 |
| 20260509161551 | 61 | 33 | 3.5 | 3.5 | 0.00 | 0.00 | 0.00 | 56 | 1012.4 |
| 20260509161051 | 61 | 70 | 2.6 | 5.2 | 0.00 | 0.00 | 0.00 | 55 | 1012.7 |
| 20260509160547 | 60 | 80 | 3.5 | 5.2 | 0.00 | 0.00 | 0.00 | 57 | 1012.6 |
| 20260509160043 | 60 | 31 | 2.6 | 2.6 | 0.00 | 0.00 | 0.00 | 58 | 1012.6 |
| 20260509155539 | 60 | 4 | 2.6 | 3.5 | 0.00 | 0.00 | 0.00 | 59 | 1012.9 |
| 20260509155035 | 59 | 21 | 1.7 | 2.6 | 0.00 | 0.00 | 0.00 | 58 | 1012.8 |
| 20260509154532 | 59 | 28 | 3.5 | 3.5 | 0.00 | 0.00 | 0.00 | 58 | 1012.9 |
| 20260509154030 | 59 | 341 | 1.7 | 3.5 | 0.00 | 0.00 | 0.00 | 59 | 1013.0 |
| 20260509153526 | 59 | 49 | 2.6 | 3.5 | 0.00 | 0.00 | 0.00 | 59 | 1012.9 |
| 20260509153023 | 59 | 41 | 1.7 | 6.1 | 0.00 | 0.00 | 0.00 | 59 | 1012.9 |
| 20260509152519 | 60 | 359 | 1.7 | 5.2 | 0.00 | 0.00 | 0.00 | 58 | 1012.9 |
| 20260509152015 | 59 | 7 | 1.7 | 3.5 | 0.00 | 0.00 | 0.00 | 58 | 1012.8 |
| 20260509151512 | 60 | 13 | 3.5 | 5.2 | 0.00 | 0.00 | 0.00 | 58 | 1012.7 |
| 20260509151010 | 60 | 329 | 0.9 | 3.5 | 0.00 | 0.00 | 0.00 | 59 | 1013.0 |
| 20260509150507 | 60 | 10 | 0.9 | 3.5 | 0.00 | 0.00 | 0.00 | 58 | 1012.7 |
| 20260509150006 | 60 | 17 | 1.7 | 3.5 | 0.00 | 0.00 | 0.00 | 59 | 1012.8 |
| 20260509145501 | 60 | 328 | 2.6 | 3.5 | 0.00 | 0.00 | 0.00 | 57 | 1012.7 |
| 20260509144956 | 60 | 338 | 1.7 | 7.0 | 0.00 | 0.00 | 0.00 | 56 | 1012.9 |
| 20260509144453 | 60 | 24 | 0.9 | 3.5 | 0.00 | 0.00 | 0.00 | 57 | 1012.7 |
| 20260509143950 | 60 | 1 | 4.3 | 5.2 | 0.00 | 0.00 | 0.00 | 58 | 1012.9 |
| 20260509143447 | 60 | 344 | 2.6 | 6.1 | 0.00 | 0.00 | 0.00 | 59 | 1012.8 |
| 20260509142943 | 59 | 10 | 1.7 | 2.6 | 0.00 | 0.00 | 0.00 | 60 | 1012.8 |
| 20260509142440 | 60 | 23 | 2.6 | 3.5 | 0.00 | 0.00 | 0.00 | 59 | 1012.7 |
| 20260509141935 | 60 | 36 | 1.7 | 1.7 | 0.00 | 0.00 | 0.00 | 58 | 1012.9 |
| 20260509141432 | 59 | 39 | 2.6 | 2.6 | 0.00 | 0.00 | 0.00 | 59 | 1012.9 |
| 20260509140929 | 59 | 59 | 0.9 | 3.5 | 0.00 | 0.00 | 0.00 | 57 | 1012.9 |
| 20260509140425 | 59 | 30 | 0.9 | 2.6 | 0.00 | 0.00 | 0.00 | 62 | 1012.9 |
| 20260509135924 | 59 | 51 | 0.0 | 1.7 | 0.00 | 0.00 | 0.00 | 61 | 1013.1 |
| 20260509135421 | 59 | 113 | 0.0 | 0.9 | 0.00 | 0.00 | 0.00 | 62 | 1013.0 |
| 20260509134918 | 58 | 113 | 0.0 | 0.9 | 0.00 | 0.00 | 0.00 | 63 | 1013.1 |
| 20260509134416 | 58 | 128 | 0.0 | 0.0 | 0.00 | 0.00 | 0.00 | 64 | 1013.2 |
| 20260509133913 | 57 | 89 | 0.0 | 0.9 | 0.00 | 0.00 | 0.00 | 66 | 1013.1 |
| 20260509133409 | 57 | 84 | 0.9 | 1.7 | 0.00 | 0.00 | 0.00 | 64 | 1013.3 |
| 20260509132908 | 56 | 83 | 0.0 | 0.9 | 0.00 | 0.00 | 0.00 | 65 | 1013.3 |
| 20260509132406 | 56 | 97 | 1.7 | 2.6 | 0.00 | 0.00 | 0.00 | 67 | 1013.0 |
| 20260509131902 | 56 | 117 | 1.7 | 2.6 | 0.00 | 0.00 | 0.00 | 70 | 1012.9 |
| 20260509131359 | 56 | 120 | 1.7 | 2.6 | 0.00 | 0.00 | 0.00 | 67 | 1012.8 |
| 20260509130856 | 56 | 281 | 0.0 | 0.0 | 0.00 | 0.00 | 0.00 | 69 | 1013.0 |
| 20260509130351 | 56 | 281 | 0.9 | 1.7 | 0.00 | 0.00 | 0.00 | 67 | 1012.8 |
| 20260509125848 | 55 | 260 | 0.0 | 0.0 | 0.00 | 0.00 | 0.00 | 66 | 1012.9 |
| 20260509125344 | 55 | 260 | 0.9 | 0.9 | 0.00 | 0.00 | 0.00 | 69 | 1012.9 |
| 20260509124841 | 55 | 194 | 0.9 | 0.9 | 0.00 | 0.00 | 0.00 | 73 | 1012.9 |
| 20260509124338 | 54 | 182 | 0.0 | 0.9 | 0.00 | 0.00 | 0.00 | 72 | 1012.8 |
| 20260509123836 | 54 | 163 | 0.9 | 0.9 | 0.00 | 0.00 | 0.00 | 76 | 1012.7 |
| 20260509123333 | 54 | 269 | 0.0 | 0.0 | 0.00 | 0.00 | 0.00 | 72 | 1012.7 |
| 20260509122828 | 54 | 269 | 0.0 | 0.0 | 0.00 | 0.00 | 0.00 | 74 | 1012.9 |
| 20260509122325 | 54 | 269 | 0.0 | 0.0 | 0.00 | 0.00 | 0.00 | 73 | 1012.9 |
| 20260509121823 | 54 | 270 | 0.0 | 0.9 | 0.00 | 0.00 | 0.00 | 70 | 1012.9 |
| 20260509121320 | 54 | 293 | 0.9 | 1.7 | 0.00 | 0.00 | 0.00 | 65 | 1012.8 |
| 20260509120819 | 53 | 293 | 0.9 | 2.6 | 0.00 | 0.00 | 0.00 | 65 | 1013.1 |
| 20260509120316 | 53 | 296 | 1.7 | 2.6 | 0.00 | 0.00 | 0.00 | 67 | 1012.9 |
| 20260509115814 | 53 | 338 | 3.5 | 3.5 | 0.00 | 0.00 | 0.00 | 67 | 1012.9 |
| 20260509115311 | 52 | 356 | 0.9 | 2.6 | 0.00 | 0.00 | 0.00 | 70 | 1013.0 |
| 20260509114809 | 52 | 232 | 0.0 | 0.0 | 0.00 | 0.00 | 0.00 | 71 | 1013.0 |
| 20260509114307 | 52 | 232 | 0.0 | 0.0 | 0.00 | 0.00 | 0.00 | 69 | 1013.0 |
| 20260509113806 | 52 | 232 | 0.0 | 0.0 | 0.00 | 0.00 | 0.00 | 69 | 1013.0 |
| 20260509113302 | 53 | 233 | 0.0 | 0.0 | 0.00 | 0.00 | 0.00 | 70 | 1013.0 |
| 20260509112759 | 53 | 232 | 0.0 | 0.0 | 0.00 | 0.00 | 0.00 | 67 | 1013.0 |
| 20260509112256 | 53 | 232 | 0.0 | 0.0 | 0.00 | 0.00 | 0.00 | 69 | 1012.9 |
| 20260509111753 | 53 | 253 | 1.7 | 1.7 | 0.00 | 0.00 | 0.00 | 61 | 1012.8 |
| 20260509111250 | 53 | 275 | 1.7 | 2.6 | 0.00 | 0.00 | 0.00 | 65 | 1012.8 |
| 20260509110748 | 53 | 261 | 1.7 | 1.7 | 0.00 | 0.00 | 0.00 | 65 | 1012.8 |
| 20260509110244 | 52 | 256 | 1.7 | 1.7 | 0.00 | 0.00 | 0.00 | 67 | 1012.8 |
| 20260509105742 | 53 | 307 | 2.6 | 2.6 | 0.00 | 0.00 | 0.00 | 66 | 1012.8 |
| 20260509105239 | 53 | 302 | 1.7 | 2.6 | 0.00 | 0.00 | 0.00 | 66 | 1012.8 |
| 20260509104736 | 53 | 290 | 0.9 | 0.9 | 0.00 | 0.00 | 0.00 | 64 | 1012.5 |
| 20260509104233 | 53 | 287 | 0.0 | 0.9 | 0.00 | 0.00 | 0.00 | 64 | 1012.5 |
| 20260509103731 | 53 | 288 | 0.9 | 0.9 | 0.00 | 0.00 | 0.00 | 65 | 1012.6 |
| 20260509103228 | 52 | 276 | 1.7 | 1.7 | 0.00 | 0.00 | 0.00 | 65 | 1012.6 |
| 20260509102726 | 53 | 267 | 0.9 | 1.7 | 0.00 | 0.00 | 0.00 | 66 | 1012.7 |
| 20260509102223 | 53 | 299 | 0.9 | 1.7 | 0.00 | 0.00 | 0.00 | 63 | 1012.5 |
| 20260509101719 | 53 | 321 | 0.0 | 1.7 | 0.00 | 0.00 | 0.00 | 62 | 1012.6 |
| 20260509101215 | 52 | 254 | 0.9 | 0.9 | 0.00 | 0.00 | 0.00 | 63 | 1012.5 |
| 20260509100713 | 52 | 252 | 0.9 | 0.9 | 0.00 | 0.00 | 0.00 | 66 | 1012.7 |
| 20260509100210 | 52 | 253 | 0.9 | 1.7 | 0.00 | 0.00 | 0.00 | 67 | 1012.7 |
| 20260509095707 | 51 | 309 | 1.7 | 2.6 | 0.00 | 0.00 | 0.00 | 69 | 1012.6 |
| 20260509095204 | 51 | 343 | 0.9 | 1.7 | 0.00 | 0.00 | 0.00 | 70 | 1012.4 |
| 20260509094700 | 52 | 5 | 0.9 | 1.7 | 0.00 | 0.00 | 0.00 | 69 | 1012.3 |
| 20260509094157 | 53 | 141 | 0.0 | 0.0 | 0.00 | 0.00 | 0.00 | 67 | 1012.5 |
| 20260509093656 | 53 | 185 | 0.0 | 0.0 | 0.00 | 0.00 | 0.00 | 64 | 1012.6 |
| 20260509093152 | 54 | 184 | 0.0 | 0.0 | 0.00 | 0.00 | 0.00 | 63 | 1012.6 |
| 20260509092650 | 54 | 268 | 0.9 | 0.9 | 0.00 | 0.00 | 0.00 | 60 | 1012.7 |
| 20260509092144 | 54 | 268 | 0.9 | 1.7 | 0.00 | 0.00 | 0.00 | 60 | 1012.5 |
| 20260509091641 | 53 | 250 | 0.0 | 0.0 | 0.00 | 0.00 | 0.00 | 60 | 1012.5 |
| 20260509091137 | 53 | 250 | 0.0 | 0.0 | 0.00 | 0.00 | 0.00 | 62 | 1012.5 |
| 20260509090635 | 54 | 250 | 0.0 | 0.0 | 0.00 | 0.00 | 0.00 | 63 | 1012.7 |
| 20260509090132 | 53 | 250 | 0.0 | 0.0 | 0.00 | 0.00 | 0.00 | 60 | 1012.5 |
| 20260509085629 | 53 | 250 | 0.0 | 0.0 | 0.00 | 0.00 | 0.00 | 63 | 1012.8 |
| 20260509085125 | 53 | 250 | 0.0 | 0.0 | 0.00 | 0.00 | 0.00 | 66 | 1012.8 |
| 20260509084623 | 52 | 250 | 0.0 | 0.0 | 0.00 | 0.00 | 0.00 | 66 | 1012.8 |
| 20260509084120 | 53 | 249 | 0.0 | 0.0 | 0.00 | 0.00 | 0.00 | 65 | 1012.9 |
| 20260509083617 | 53 | 250 | 0.0 | 0.0 | 0.00 | 0.00 | 0.00 | 65 | 1012.9 |
| 20260509083113 | 53 | 253 | 0.0 | 0.0 | 0.00 | 0.00 | 0.00 | 65 | 1012.9 |
| 20260509082611 | 52 | 265 | 0.0 | 0.0 | 0.00 | 0.00 | 0.00 | 65 | 1012.9 |
| 20260509082107 | 52 | 279 | 0.0 | 0.0 | 0.00 | 0.00 | 0.00 | 66 | 1013.0 |
| 20260509081605 | 52 | 280 | 0.0 | 0.0 | 0.00 | 0.00 | 0.00 | 64 | 1013.1 |
| 20260509081101 | 52 | 281 | 0.0 | 0.0 | 0.00 | 0.00 | 0.00 | 64 | 1012.8 |
| 20260509080600 | 52 | 280 | 0.0 | 0.9 | 0.00 | 0.00 | 0.00 | 64 | 1012.9 |
| 20260509080057 | 52 | 280 | 0.0 | 0.9 | 0.00 | 0.00 | 0.00 | 66 | 1013.0 |
| 20260509075555 | 52 | 279 | 0.0 | 0.9 | 0.00 | 0.00 | 0.00 | 67 | 1013.0 |
| 20260509075053 | 52 | 300 | 1.7 | 1.7 | 0.00 | 0.00 | 0.00 | 65 | 1012.8 |
| 20260509074549 | 52 | 279 | 0.9 | 0.9 | 0.00 | 0.00 | 0.00 | 64 | 1012.9 |
| 20260509074046 | 53 | 278 | 0.0 | 0.0 | 0.00 | 0.00 | 0.00 | 64 | 1012.9 |
| 20260509073543 | 52 | 283 | 0.9 | 1.7 | 0.00 | 0.00 | 0.00 | 64 | 1012.9 |
| 20260509073039 | 52 | 273 | 0.9 | 1.7 | 0.00 | 0.00 | 0.00 | 64 | 1012.9 |
| 20260509072535 | 52 | 250 | 0.0 | 0.9 | 0.00 | 0.00 | 0.00 | 65 | 1013.0 |
| 20260509072032 | 52 | 215 | 0.0 | 0.0 | 0.00 | 0.00 | 0.00 | 65 | 1012.9 |
| 20260509071529 | 52 | 215 | 0.0 | 0.0 | 0.00 | 0.00 | 0.00 | 65 | 1013.0 |
| 20260509071027 | 52 | 215 | 0.0 | 0.0 | 0.00 | 0.00 | 0.00 | 64 | 1012.9 |
| 20260509070524 | 52 | 215 | 0.0 | 0.0 | 0.00 | 0.00 | 0.00 | 63 | 1013.0 |
| 20260509070020 | 52 | 215 | 0.0 | 0.0 | 0.00 | 0.00 | 0.00 | 63 | 1012.9 |
| 20260509065515 | 52 | 215 | 0.0 | 0.0 | 0.00 | 0.00 | 0.00 | 63 | 1012.9 |
| 20260509065012 | 52 | 215 | 0.0 | 0.9 | 0.00 | 0.00 | 0.00 | 64 | 1013.0 |
| 20260509064510 | 52 | 170 | 0.0 | 0.0 | 0.00 | 0.00 | 0.00 | 64 | 1013.1 |
| 20260509064008 | 52 | 139 | 0.0 | 0.0 | 0.00 | 0.00 | 0.00 | 64 | 1013.0 |
| 20260509063502 | 53 | 137 | 0.0 | 1.7 | 0.00 | 0.00 | 0.00 | 64 | 1013.1 |
| 20260509063000 | 53 | 253 | 0.9 | 1.7 | 0.00 | 0.00 | 0.00 | 62 | 1013.2 |
| 20260509062457 | 53 | 260 | 0.9 | 0.9 | 0.00 | 0.00 | 0.00 | 62 | 1013.2 |
| 20260509061955 | 53 | 260 | 0.0 | 0.0 | 0.00 | 0.00 | 0.00 | 63 | 1013.1 |
| 20260509061452 | 52 | 261 | 0.9 | 0.9 | 0.00 | 0.00 | 0.00 | 65 | 1013.3 |
| 20260509060949 | 52 | 261 | 0.9 | 1.7 | 0.00 | 0.00 | 0.00 | 66 | 1013.5 |
| 20260509060446 | 51 | 294 | 2.6 | 2.6 | 0.00 | 0.00 | 0.00 | 67 | 1013.4 |
| 20260509055942 | 51 | 231 | 0.0 | 0.0 | 0.00 | 0.00 | 0.00 | 66 | 1013.4 |
| 20260509055437 | 52 | 231 | 0.0 | 0.0 | 0.00 | 0.00 | 0.00 | 65 | 1013.3 |
| 20260509054934 | 52 | 233 | 0.0 | 0.9 | 0.00 | 0.00 | 0.00 | 62 | 1013.5 |
| 20260509054431 | 52 | 211 | 0.0 | 0.0 | 0.00 | 0.00 | 0.00 | 64 | 1013.6 |
| 20260509053929 | 52 | 210 | 0.0 | 0.0 | 0.00 | 0.00 | 0.00 | 65 | 1013.3 |
| 20260509053426 | 53 | 195 | 0.0 | 0.0 | 0.00 | 0.00 | 0.00 | 63 | 1013.6 |
| 20260509052924 | 54 | 157 | 0.0 | 0.0 | 0.00 | 0.00 | 0.00 | 62 | 1013.4 |
| 20260509052421 | 54 | 260 | 0.0 | 0.0 | 0.00 | 0.00 | 0.00 | 57 | 1013.4 |
| 20260509051919 | 54 | 260 | 0.0 | 0.0 | 0.00 | 0.00 | 0.00 | 59 | 1013.5 |
| 20260509051417 | 54 | 260 | 0.0 | 0.0 | 0.00 | 0.00 | 0.00 | 60 | 1013.7 |
| 20260509050913 | 54 | 259 | 0.0 | 0.0 | 0.00 | 0.00 | 0.00 | 61 | 1013.8 |
| 20260509050410 | 54 | 259 | 0.0 | 0.0 | 0.00 | 0.00 | 0.00 | 60 | 1013.6 |
| 20260509045907 | 55 | 259 | 0.0 | 0.0 | 0.00 | 0.00 | 0.00 | 59 | 1013.6 |
| 20260509045404 | 55 | 261 | 0.0 | 0.0 | 0.00 | 0.00 | 0.00 | 58 | 1013.6 |